Location: Ariel
(45.9570°N, 122.5700°W)
Time: 01:15:43
(UTC-07:00)

Vanguard 3 - Pass Details

Date: 27 August 2019
Orbit: 508 x 3263 km, 33.4° (Epoch: 19 September)

Event Time Altitude Azimuth Distance (km) Brightness Sun altitude
Rises 18:10:00 0° 248° (WSW) 5,261 12.7 17.8°
Reaches altitude 10° 18:14:38 10° 240° (WSW) 3,751 11.9 17.0°
Maximum altitude 18:21:56 28° 186° (S) 1,873 9.2 15.7°
Drops below altitude 10° 18:26:41 10° 127° (SE) 2,374 9.1 14.9°
Sets 18:28:58 0° 115° (ESE) 3,074 9.6 14.5°
